Погода в Северном Колчиме

Россия / Пермский край     60°07′16″N   57°46′47″E
темп.,
°C
ветер,
м/с
пор.,
м/с
влажн.,
%
обл.,
%
осадки,
мм/ч
давл.,
гПа
погр.,
м
6 марта, сб
сб623:00−12з4895100 1.5 999484
02:00−17юз2599100 0.3 1001148
05:00−20ююз22100100 0.4 100372
08:00−20ю2499100 0.2 1003152
11:00−17юз1293100 0.5 1004317
14:00−13з2590100 0.1 1005674
17:00−12зсз3592100 0.4 1006648
20:00−15з2598100 0.3 1007137
7 марта, вс
вс723:00−17зюз1298100 0.5 100931
02:00−18юз1299100 0.1 100924
05:00−19ююз1299100 0.3 100925
08:00−20ю2299100 0.2 100942
11:00−17ююз2394100 0.3 1009389
14:00−14юз2388100 0.1 1009749
17:00−14юз2388100 0.3 1008576
20:00−19ююв1199100 0.1 100820
8 марта, пн
пн823:00−20вюв1199100 0.1 100820
02:00−21вюв1198100 0.1 100820
05:00−22в129796 0.1 100720
08:00−23в229533 0.0 100620
11:00−15вюв248847 0.0 1005260
14:00−11юв2581100 0.0 1003676
17:00−11юв3689100 0.0 1002623
20:00−13вюв41090100 0.3 1002472
9 марта, вт
вт923:00−14вюв41088100 0.3 1002350
02:00−16в3793100 0.1 1002190
05:00−18в359397 0.2 1001109
08:00−15в41186100 0.0 999276
11:00−12всв41091100 0.2 997367
14:00−10всв3691100 2.1 997726
17:00−10св1294100 3.0 1000320
20:00−14ссз2596100 0.4 1004225
10 марта, ср
ср1023:00−20ссз2310095 0.5 100757
02:00−24сз119995 0.0 100920
05:00−26сз119993 0.1 101119
08:00−29сз1110099 0.0 101319
11:00−23сз129398 0.0 1013295
14:00−19сз3492100 0.0 1013488
17:00−18сз3494100 0.1 1010481
20:00−23сз2299100 0.1 101150